Greensboro, NC

10:23 PM EST on December 04, 2016 (GMT -0500)
Piedmont Triad International

Weather History for KGSO - November, 2012

Change the Weather History Date:

Wednesday, November 7, 2012

  Actual Average Record
Temperature  
Mean Temperature 44 °F 53 °F  
Max Temperature 54 °F 64 °F 78 °F (1938)
Min Temperature 33 °F 42 °F 22 °F (1930)
Degree Days  
Heating Degree Days 21 12  
Month to date heating degree days 132 79  
Since 1 July heating degree days 359 312  
Cooling Degree Days 0 0  
Month to date cooling degree days 0 0  
Year to date cooling degree days 1623 1480  
Moisture  
Dew Point 30 °F    
Average Humidity 60    
Maximum Humidity 82    
Minimum Humidity 38    
Precipitation  
Precipitation 0.00 in 0.11 in 1.77 in (1912)
Month to date precipitation T 0.76  
Year to date precipitation 33.82 36.87  
Snow  
Snow 0.00 in 0.00 in 0.00 in (2002)
Month to date snowfall 0.0  
Since 1 July snowfall 0.0  
Since 1 September snowfall 0.0  
Snow Depth -    
Sea Level Pressure  
Sea Level Pressure 29.90 in    
Wind  
Wind Speed 3 mph (North)    
Max Wind Speed 10 mph    
Max Gust Speed 13 mph    
Visibility 10 miles    
Events      
T = Trace of Precipitation, MM = Missing Value Source: NWS Daily Summary

Daily Weather History Graph

Daily Weather History Graph

Search for Another Location

Airport or City:

Trip Planner

Search our weather history database for the weather conditions in past years. The results will help you decide how hot, cold, wet, or windy it might be!

Date:

Astronomy

Nov. 07, 2012 Rise Set
Actual Time 6:48 AM EST 5:17 PM EST
Civil Twilight 6:21 AM EST 5:44 PM EST
Nautical Twilight 5:51 AM EST 6:15 PM EST
Astronomical Twilight 5:21 AM EST 6:45 PM EST
Moon No Moon Rise 1:14 PM EST (11/7)
Length of Visible Light 11h 22m
Length of Day
10h 28m
Last Quarter, 43% of the Moon is Illuminated
Nov 7
Last Quarter
Nov 13
New
Nov 20
First Quarter
Nov 28
Full
Dec 6
Last Quarter

Hourly Weather History & Observations

Time (EST) Temp. Windchill Dew Point Humidity Pressure Visibility Wind Dir Wind Speed Gust Speed Precip Events Conditions
12:54 AM 37.0 °F 34.5 °F 30.0 °F 76% 29.94 in 10.0 mi North 3.5 mph - N/A   Mostly Cloudy
1:54 AM 36.0 °F 32.1 °F 28.9 °F 76% 29.93 in 10.0 mi North 4.6 mph - N/A   Mostly Cloudy
2:54 AM 34.0 °F 29.8 °F 28.9 °F 82% 29.91 in 10.0 mi North 4.6 mph - N/A   Partly Cloudy
3:54 AM 33.1 °F 30.0 °F 28.0 °F 82% 29.90 in 10.0 mi NNE 3.5 mph - N/A   Scattered Clouds
4:54 AM 34.0 °F 29.8 °F 28.0 °F 79% 29.90 in 10.0 mi North 4.6 mph - N/A   Partly Cloudy
5:54 AM 34.0 °F 29.8 °F 28.0 °F 79% 29.90 in 10.0 mi North 4.6 mph - N/A   Scattered Clouds
6:54 AM 33.1 °F 28.7 °F 27.0 °F 78% 29.91 in 10.0 mi North 4.6 mph - N/A   Partly Cloudy
7:54 AM 34.0 °F - 28.0 °F 79% 29.92 in 10.0 mi Calm Calm - N/A   Scattered Clouds
8:54 AM 39.9 °F 35.8 °F 30.0 °F 68% 29.92 in 10.0 mi NNE 5.8 mph - N/A   Scattered Clouds
9:54 AM 44.1 °F 39.0 °F 30.9 °F 60% 29.92 in 10.0 mi NE 9.2 mph - N/A   Clear
10:54 AM 46.9 °F - 30.9 °F 54% 29.91 in 10.0 mi North 5.8 mph - N/A   Partly Cloudy
11:54 AM 48.0 °F - 30.9 °F 52% 29.88 in 10.0 mi Calm Calm - N/A   Scattered Clouds
12:54 PM 48.9 °F - 30.9 °F 50% 29.86 in 10.0 mi West 4.6 mph - N/A   Scattered Clouds
1:54 PM 52.0 °F - 30.9 °F 45% 29.83 in 10.0 mi Calm Calm - N/A   Clear
2:54 PM 53.1 °F - 28.9 °F 40% 29.83 in 10.0 mi Variable 4.6 mph - N/A   Clear
3:54 PM 52.0 °F - 28.0 °F 40% 29.84 in 10.0 mi North 3.5 mph - N/A   Partly Cloudy
4:54 PM 50.0 °F - 27.0 °F 41% 29.86 in 10.0 mi North 3.5 mph - N/A   Partly Cloudy
5:54 PM 46.9 °F - 28.0 °F 48% 29.87 in 10.0 mi Calm Calm - N/A   Partly Cloudy
6:54 PM 44.1 °F - 30.9 °F 60% 29.90 in 10.0 mi Calm Calm - N/A   Scattered Clouds
7:54 PM 44.1 °F 42.5 °F 30.9 °F 60% 29.92 in 10.0 mi NNE 3.5 mph - N/A   Mostly Cloudy
8:54 PM 42.1 °F 40.2 °F 30.9 °F 65% 29.93 in 10.0 mi NNE 3.5 mph - N/A   Partly Cloudy
9:54 PM 41.0 °F - 32.0 °F 70% 29.94 in 10.0 mi Calm Calm - N/A   Partly Cloudy
10:54 PM 37.9 °F 35.5 °F 32.0 °F 79% 29.95 in 10.0 mi NNE 3.5 mph - N/A   Clear
11:54 PM 37.9 °F - 30.9 °F 76% 29.95 in 10.0 mi Calm Calm - N/A   Mostly Cloudy